Year,Month,Day,Hour,Minute,Value (Times are PST for temperature in C)
2013,11,22,00,00,-0.10
2013,11,22,00,01,-0.10
2013,11,22,00,02,-0.10
2013,11,22,00,03,-0.10
2013,11,22,00,04,-0.10
2013,11,22,00,05,-0.10
2013,11,22,00,06,-0.10
2013,11,22,00,07,-0.10
2013,11,22,00,08,-0.10
2013,11,22,00,09,-0.10
2013,11,22,00,10,-0.10
2013,11,22,00,11,0.00
2013,11,22,00,12,0.00
2013,11,22,00,13,0.00
2013,11,22,00,14,0.00
2013,11,22,00,15,0.00
2013,11,22,00,16,0.00
2013,11,22,00,17,0.10
2013,11,22,00,18,0.10
2013,11,22,00,19,0.10
2013,11,22,00,20,0.10
2013,11,22,00,21,0.10
2013,11,22,00,22,0.10
2013,11,22,00,23,0.10
2013,11,22,00,24,0.10
2013,11,22,00,25,0.10
2013,11,22,00,26,0.10
2013,11,22,00,27,0.10
2013,11,22,00,28,0.10
2013,11,22,00,29,0.10
2013,11,22,00,30,0.10
2013,11,22,00,31,0.10
2013,11,22,00,32,0.10
2013,11,22,00,33,0.10
2013,11,22,00,34,0.10
2013,11,22,00,35,0.20
2013,11,22,00,36,0.10
2013,11,22,00,37,0.10
2013,11,22,00,38,0.20
2013,11,22,00,39,0.20
2013,11,22,00,40,0.20
2013,11,22,00,41,0.10
2013,11,22,00,42,0.10
2013,11,22,00,43,0.10
2013,11,22,00,44,0.10
2013,11,22,00,45,0.10
2013,11,22,00,46,0.20
2013,11,22,00,47,0.20
2013,11,22,00,48,0.20
2013,11,22,00,49,0.20
2013,11,22,00,50,0.20
2013,11,22,00,51,0.20
2013,11,22,00,52,0.20
2013,11,22,00,53,0.20
2013,11,22,00,54,0.20
2013,11,22,00,55,0.20
2013,11,22,00,56,0.20
2013,11,22,00,57,0.20
2013,11,22,00,58,0.20
2013,11,22,00,59,0.20
2013,11,22,01,00,0.20
2013,11,22,01,01,0.20
2013,11,22,01,02,0.20
2013,11,22,01,03,0.20
2013,11,22,01,04,0.20
2013,11,22,01,05,0.10
2013,11,22,01,06,0.10
2013,11,22,01,07,0.10
2013,11,22,01,08,0.10
2013,11,22,01,09,0.10
2013,11,22,01,10,0.10
2013,11,22,01,11,0.10
2013,11,22,01,12,0.10
2013,11,22,01,13,0.10
2013,11,22,01,14,0.10
2013,11,22,01,15,0.10
2013,11,22,01,16,0.10
2013,11,22,01,17,0.10
2013,11,22,01,18,0.10
2013,11,22,01,19,0.10
2013,11,22,01,20,0.10
2013,11,22,01,21,0.10
2013,11,22,01,22,0.10
2013,11,22,01,23,0.10
2013,11,22,01,24,0.00
2013,11,22,01,25,0.00
2013,11,22,01,26,0.10
2013,11,22,01,27,0.10
2013,11,22,01,28,0.10
2013,11,22,01,29,0.10
2013,11,22,01,30,0.10
2013,11,22,01,31,0.10
2013,11,22,01,32,0.10
2013,11,22,01,33,0.20
2013,11,22,01,34,0.20
2013,11,22,01,35,0.30
2013,11,22,01,36,0.30
2013,11,22,01,37,0.30
2013,11,22,01,38,0.40
2013,11,22,01,39,0.50
2013,11,22,01,40,0.60
2013,11,22,01,41,0.70
2013,11,22,01,42,0.80
2013,11,22,01,43,0.90
2013,11,22,01,44,1.00
2013,11,22,01,45,1.00
2013,11,22,01,46,1.10
2013,11,22,01,47,1.20
2013,11,22,01,48,1.20
2013,11,22,01,49,1.20
2013,11,22,01,50,1.30
2013,11,22,01,51,1.30
2013,11,22,01,52,1.30
2013,11,22,01,53,1.30
2013,11,22,01,54,1.40
2013,11,22,01,55,1.40
2013,11,22,01,56,1.50
2013,11,22,01,57,1.60
2013,11,22,01,58,1.60
2013,11,22,01,59,1.70
2013,11,22,02,00,1.80
2013,11,22,02,01,1.80
2013,11,22,02,02,1.90
2013,11,22,02,03,1.90
2013,11,22,02,04,2.00
2013,11,22,02,05,2.10
2013,11,22,02,06,2.10
2013,11,22,02,07,2.10
2013,11,22,02,08,2.10
2013,11,22,02,09,2.20
2013,11,22,02,10,2.20
2013,11,22,02,11,2.20
2013,11,22,02,12,2.20
2013,11,22,02,13,2.30
2013,11,22,02,14,2.30
2013,11,22,02,15,2.20
2013,11,22,02,16,2.30
2013,11,22,02,17,2.40
2013,11,22,02,18,2.50
2013,11,22,02,19,2.60
2013,11,22,02,20,2.70
2013,11,22,02,21,2.80
2013,11,22,02,22,2.80
2013,11,22,02,23,2.90
2013,11,22,02,24,3.00
2013,11,22,02,25,3.10
2013,11,22,02,26,3.20
2013,11,22,02,27,3.30
2013,11,22,02,28,3.30
2013,11,22,02,29,3.40
2013,11,22,02,30,3.40
2013,11,22,02,31,3.50
2013,11,22,02,32,3.50
2013,11,22,02,33,3.50
2013,11,22,02,34,3.60
2013,11,22,02,35,3.60
2013,11,22,02,36,3.60
2013,11,22,02,37,3.60
2013,11,22,02,38,3.60
2013,11,22,02,39,3.60
2013,11,22,02,40,3.60
2013,11,22,02,41,3.60
2013,11,22,02,42,3.60
2013,11,22,02,43,3.60
2013,11,22,02,44,3.70
2013,11,22,02,45,3.70
2013,11,22,02,46,3.70
2013,11,22,02,47,3.70
2013,11,22,02,48,3.70
2013,11,22,02,49,3.70
2013,11,22,02,50,3.70
2013,11,22,02,51,3.70
2013,11,22,02,52,3.70
2013,11,22,02,53,3.70
2013,11,22,02,54,3.70
2013,11,22,02,55,3.70
2013,11,22,02,56,3.70
2013,11,22,02,57,3.70
2013,11,22,02,58,3.70
2013,11,22,02,59,3.70
2013,11,22,03,00,3.70
2013,11,22,03,01,3.70
2013,11,22,03,02,3.60
2013,11,22,03,03,3.60
2013,11,22,03,04,3.60
2013,11,22,03,05,3.60
2013,11,22,03,06,3.60
2013,11,22,03,07,3.60
2013,11,22,03,08,3.60
2013,11,22,03,09,3.70
2013,11,22,03,10,3.60
2013,11,22,03,11,3.60
2013,11,22,03,12,3.60
2013,11,22,03,13,3.60
2013,11,22,03,14,3.60
2013,11,22,03,15,3.60
2013,11,22,03,16,3.60
2013,11,22,03,17,3.60
2013,11,22,03,18,3.50
2013,11,22,03,19,3.50
2013,11,22,03,20,3.40
2013,11,22,03,21,3.40
2013,11,22,03,22,3.40
2013,11,22,03,23,3.40
2013,11,22,03,24,3.30
2013,11,22,03,25,3.30
2013,11,22,03,26,3.30
2013,11,22,03,27,3.20
2013,11,22,03,28,3.20
2013,11,22,03,29,3.20
2013,11,22,03,30,3.10
2013,11,22,03,31,3.10
2013,11,22,03,32,3.10
2013,11,22,03,33,3.00
2013,11,22,03,34,3.00
2013,11,22,03,35,2.90
2013,11,22,03,36,2.90
2013,11,22,03,37,2.90
2013,11,22,03,38,2.80
2013,11,22,03,39,2.80
2013,11,22,03,40,2.80
2013,11,22,03,41,2.80
2013,11,22,03,42,2.80
2013,11,22,03,43,2.70
2013,11,22,03,44,2.70
2013,11,22,03,45,2.70
2013,11,22,03,46,2.70
2013,11,22,03,47,2.70
2013,11,22,03,48,2.70
2013,11,22,03,49,2.60
2013,11,22,03,50,2.60
2013,11,22,03,51,2.60
2013,11,22,03,52,2.60
2013,11,22,03,53,2.50
2013,11,22,03,54,2.50
2013,11,22,03,55,2.40
2013,11,22,03,56,2.40
2013,11,22,03,57,2.40
2013,11,22,03,58,2.40
2013,11,22,03,59,2.40
2013,11,22,04,00,2.30
2013,11,22,04,01,2.30
2013,11,22,04,02,2.30
2013,11,22,04,03,2.30
2013,11,22,04,04,2.30
2013,11,22,04,05,2.20
2013,11,22,04,06,2.20
2013,11,22,04,07,2.20
2013,11,22,04,08,2.10
2013,11,22,04,09,2.10
2013,11,22,04,10,2.10
2013,11,22,04,11,2.00
2013,11,22,04,12,2.00
2013,11,22,04,13,1.90
2013,11,22,04,14,1.90
2013,11,22,04,15,1.80
2013,11,22,04,16,1.80
2013,11,22,04,17,1.80
2013,11,22,04,18,1.80
2013,11,22,04,19,1.70
2013,11,22,04,20,1.70
2013,11,22,04,21,1.70
2013,11,22,04,22,1.60
2013,11,22,04,23,1.60
2013,11,22,04,24,1.60
2013,11,22,04,25,1.60
2013,11,22,04,26,1.50
2013,11,22,04,27,1.50
2013,11,22,04,28,1.50
2013,11,22,04,29,1.50
2013,11,22,04,30,1.40
2013,11,22,04,31,1.40
2013,11,22,04,32,1.40
2013,11,22,04,33,1.40
2013,11,22,04,34,1.40
2013,11,22,04,35,1.40
2013,11,22,04,36,1.30
2013,11,22,04,37,1.30
2013,11,22,04,38,1.30
2013,11,22,04,39,1.30
2013,11,22,04,40,1.30
2013,11,22,04,41,1.30
2013,11,22,04,42,1.20
2013,11,22,04,43,1.20
2013,11,22,04,44,1.20
2013,11,22,04,45,1.20
2013,11,22,04,46,1.20
2013,11,22,04,47,1.10
2013,11,22,04,48,1.10
2013,11,22,04,49,1.10
2013,11,22,04,50,1.10
2013,11,22,04,51,1.10
2013,11,22,04,52,1.10
2013,11,22,04,53,1.10
2013,11,22,04,54,1.10
2013,11,22,04,55,1.10
2013,11,22,04,56,1.10
2013,11,22,04,57,1.10
2013,11,22,04,58,1.10
2013,11,22,04,59,1.10
2013,11,22,05,00,1.10
2013,11,22,05,01,1.10
2013,11,22,05,02,1.10
2013,11,22,05,03,1.00
2013,11,22,05,04,1.00
2013,11,22,05,05,0.90
2013,11,22,05,06,0.90
2013,11,22,05,07,0.90
2013,11,22,05,08,0.90
2013,11,22,05,09,0.80
2013,11,22,05,10,0.80
2013,11,22,05,11,0.80
2013,11,22,05,12,0.80
2013,11,22,05,13,0.80
2013,11,22,05,14,0.70
2013,11,22,05,15,0.70
2013,11,22,05,16,0.70
2013,11,22,05,17,0.70
2013,11,22,05,18,0.70
2013,11,22,05,19,0.60
2013,11,22,05,20,0.60
2013,11,22,05,21,0.60
2013,11,22,05,22,0.60
2013,11,22,05,23,0.60
2013,11,22,05,24,0.60
2013,11,22,05,25,0.60
2013,11,22,05,26,0.60
2013,11,22,05,27,0.60
2013,11,22,05,28,0.60
2013,11,22,05,29,0.50
2013,11,22,05,30,0.50
2013,11,22,05,31,0.50
2013,11,22,05,32,0.50
2013,11,22,05,33,0.50
2013,11,22,05,34,0.40
2013,11,22,05,35,0.40
2013,11,22,05,36,0.40
2013,11,22,05,37,0.40
2013,11,22,05,38,0.50
2013,11,22,05,39,0.50
2013,11,22,05,40,0.50
2013,11,22,05,41,0.50
2013,11,22,05,42,0.50
2013,11,22,05,43,0.50
2013,11,22,05,44,0.50
2013,11,22,05,45,0.50
2013,11,22,05,46,0.50
2013,11,22,05,47,0.50
2013,11,22,05,48,0.50
2013,11,22,05,49,0.50
2013,11,22,05,50,0.50
2013,11,22,05,51,0.50
2013,11,22,05,52,0.60
2013,11,22,05,53,0.60
2013,11,22,05,54,0.60
2013,11,22,05,55,0.60
2013,11,22,05,56,0.60
2013,11,22,05,57,0.60
2013,11,22,05,58,0.60
2013,11,22,05,59,0.60
2013,11,22,06,00,0.60
2013,11,22,06,01,0.60
2013,11,22,06,02,0.60
2013,11,22,06,03,0.60
2013,11,22,06,04,0.60
2013,11,22,06,05,0.60
2013,11,22,06,06,0.60
2013,11,22,06,07,0.60
2013,11,22,06,08,0.60
2013,11,22,06,09,0.70
2013,11,22,06,10,0.70
2013,11,22,06,11,0.70
2013,11,22,06,12,0.70
2013,11,22,06,13,0.70
2013,11,22,06,14,0.60
2013,11,22,06,15,0.60
2013,11,22,06,16,0.60
2013,11,22,06,17,0.60
2013,11,22,06,18,0.50
2013,11,22,06,19,0.50
2013,11,22,06,20,0.50
2013,11,22,06,21,0.40
2013,11,22,06,22,0.40
2013,11,22,06,23,0.40
2013,11,22,06,24,0.40
2013,11,22,06,25,0.40
2013,11,22,06,26,0.40
2013,11,22,06,27,0.40
2013,11,22,06,28,0.40
2013,11,22,06,29,0.40
2013,11,22,06,30,0.40
2013,11,22,06,31,0.40
2013,11,22,06,32,0.40
2013,11,22,06,33,0.40
2013,11,22,06,34,0.40
2013,11,22,06,35,0.40
2013,11,22,06,36,0.40
2013,11,22,06,37,0.40
2013,11,22,06,38,0.40
2013,11,22,06,39,0.40
2013,11,22,06,40,0.40
2013,11,22,06,41,0.50
2013,11,22,06,42,0.50
2013,11,22,06,43,0.50
2013,11,22,06,44,0.50
2013,11,22,06,45,0.50
2013,11,22,06,46,0.50
2013,11,22,06,47,0.50
2013,11,22,06,48,0.50
2013,11,22,06,49,0.50
2013,11,22,06,50,0.50
2013,11,22,06,51,0.50
2013,11,22,06,52,0.50
2013,11,22,06,53,0.50
2013,11,22,06,54,0.60
2013,11,22,06,55,0.60
2013,11,22,06,56,0.60
2013,11,22,06,57,0.60
2013,11,22,06,58,0.60
2013,11,22,06,59,0.60
2013,11,22,07,00,0.60
2013,11,22,07,01,0.60
2013,11,22,07,02,0.60
2013,11,22,07,03,0.60
2013,11,22,07,04,0.60
2013,11,22,07,05,0.60
2013,11,22,07,06,0.60
2013,11,22,07,07,0.60
2013,11,22,07,08,0.60
2013,11,22,07,09,0.70
2013,11,22,07,10,0.70
2013,11,22,07,11,0.70
2013,11,22,07,12,0.70
2013,11,22,07,13,0.70
2013,11,22,07,14,0.70
2013,11,22,07,15,0.70
2013,11,22,07,16,0.70
2013,11,22,07,17,0.60
2013,11,22,07,18,0.60
2013,11,22,07,19,0.60
2013,11,22,07,20,0.60
2013,11,22,07,21,0.60
2013,11,22,07,22,0.60
2013,11,22,07,23,0.60
2013,11,22,07,24,0.60
2013,11,22,07,25,0.60
2013,11,22,07,26,0.70
2013,11,22,07,27,0.70
2013,11,22,07,28,0.70
2013,11,22,07,29,0.70
2013,11,22,07,30,0.80
2013,11,22,07,31,0.80
2013,11,22,07,32,0.80
2013,11,22,07,33,0.80
2013,11,22,07,34,0.90
2013,11,22,07,35,0.90
2013,11,22,07,36,0.90
2013,11,22,07,37,0.90
2013,11,22,07,38,1.00
2013,11,22,07,39,1.00
2013,11,22,07,40,1.00
2013,11,22,07,41,1.00
2013,11,22,07,42,1.10
2013,11,22,07,43,1.10
2013,11,22,07,44,1.10
2013,11,22,07,45,1.10
2013,11,22,07,46,1.10
2013,11,22,07,47,1.20
2013,11,22,07,48,1.20
2013,11,22,07,49,1.10
2013,11,22,07,50,1.10
2013,11,22,07,51,1.10
2013,11,22,07,52,1.20
2013,11,22,07,53,1.20
2013,11,22,07,54,1.30
2013,11,22,07,55,1.30
2013,11,22,07,56,1.30
2013,11,22,07,57,1.30
2013,11,22,07,58,1.30
2013,11,22,07,59,1.40
2013,11,22,08,00,1.40
2013,11,22,08,01,1.40
2013,11,22,08,02,1.40
2013,11,22,08,03,1.50
2013,11,22,08,04,1.50
2013,11,22,08,05,1.60
2013,11,22,08,06,1.60
2013,11,22,08,07,1.70
2013,11,22,08,08,1.80
2013,11,22,08,09,1.90
2013,11,22,08,10,2.00
2013,11,22,08,11,2.10
2013,11,22,08,12,2.30
2013,11,22,08,13,2.40
2013,11,22,08,14,2.60
2013,11,22,08,15,2.70
2013,11,22,08,16,2.80
2013,11,22,08,17,3.00
2013,11,22,08,18,3.10
2013,11,22,08,19,3.20
2013,11,22,08,20,3.20
2013,11,22,08,21,3.30
2013,11,22,08,22,3.30
2013,11,22,08,23,3.40
2013,11,22,08,24,3.40
2013,11,22,08,25,3.40
2013,11,22,08,26,3.50
2013,11,22,08,27,3.50
2013,11,22,08,28,3.60
2013,11,22,08,29,3.60
2013,11,22,08,30,3.60
2013,11,22,08,31,3.60
2013,11,22,08,32,3.70
2013,11,22,08,33,3.70
2013,11,22,08,34,3.70
2013,11,22,08,35,3.70
2013,11,22,08,36,3.70
2013,11,22,08,37,3.70
2013,11,22,08,38,3.70
2013,11,22,08,39,3.70
2013,11,22,08,40,3.70
2013,11,22,08,41,3.70
2013,11,22,08,42,3.70
2013,11,22,08,43,3.70
2013,11,22,08,44,3.70
2013,11,22,08,45,3.70
2013,11,22,08,46,3.70
2013,11,22,08,47,3.70
2013,11,22,08,48,3.70
2013,11,22,08,49,3.70
2013,11,22,08,50,3.70
2013,11,22,08,51,3.80
2013,11,22,08,52,3.80
2013,11,22,08,53,3.80
2013,11,22,08,54,3.80
2013,11,22,08,55,3.80
2013,11,22,08,56,3.80
2013,11,22,08,57,3.80
2013,11,22,08,58,3.80
2013,11,22,08,59,3.80
2013,11,22,09,00,3.80
2013,11,22,09,01,3.90
2013,11,22,09,02,3.90
2013,11,22,09,03,3.90
2013,11,22,09,04,3.90
2013,11,22,09,05,3.90
2013,11,22,09,06,3.90
2013,11,22,09,07,3.90
2013,11,22,09,08,3.90
2013,11,22,09,09,3.90
2013,11,22,09,10,3.90
2013,11,22,09,11,3.90
2013,11,22,09,12,3.90
2013,11,22,09,13,3.90
2013,11,22,09,14,4.00
2013,11,22,09,15,4.00
2013,11,22,09,16,4.00
2013,11,22,09,17,4.00
2013,11,22,09,18,4.10
2013,11,22,09,19,4.10
2013,11,22,09,20,4.10
2013,11,22,09,21,4.10
2013,11,22,09,22,4.10
2013,11,22,09,23,4.20
2013,11,22,09,24,4.20
2013,11,22,09,25,4.20
2013,11,22,09,26,4.20
2013,11,22,09,27,4.20
2013,11,22,09,28,4.30
2013,11,22,09,29,4.30
2013,11,22,09,30,4.30
2013,11,22,09,31,4.30
2013,11,22,09,32,4.30
2013,11,22,09,33,4.40
2013,11,22,09,34,4.40
2013,11,22,09,35,4.40
2013,11,22,09,36,4.40
2013,11,22,09,37,4.50
2013,11,22,09,38,4.50
2013,11,22,09,39,4.50
2013,11,22,09,40,4.40
2013,11,22,09,41,4.20
2013,11,22,09,42,4.20
2013,11,22,09,43,4.00
2013,11,22,09,44,3.90
2013,11,22,09,45,3.80
2013,11,22,09,46,3.70
2013,11,22,09,47,3.60
2013,11,22,09,48,3.50
2013,11,22,09,49,3.40
2013,11,22,09,50,3.40
2013,11,22,09,51,3.30
2013,11,22,09,52,3.30
2013,11,22,09,53,3.30
2013,11,22,09,54,3.30
2013,11,22,09,55,3.30
2013,11,22,09,56,3.30
2013,11,22,09,57,3.30
2013,11,22,09,58,3.30
2013,11,22,09,59,3.40
2013,11,22,10,00,3.40
2013,11,22,10,01,3.50
2013,11,22,10,02,3.60
2013,11,22,10,03,3.70
2013,11,22,10,04,3.70
2013,11,22,10,05,3.80
2013,11,22,10,06,3.90
2013,11,22,10,07,4.00
2013,11,22,10,08,4.00
2013,11,22,10,09,4.10
2013,11,22,10,10,4.20
2013,11,22,10,11,4.30
2013,11,22,10,12,4.40
2013,11,22,10,13,4.50
2013,11,22,10,14,4.50
2013,11,22,10,15,4.60
2013,11,22,10,16,4.60
2013,11,22,10,17,4.70
2013,11,22,10,18,4.70
2013,11,22,10,19,4.70
2013,11,22,10,20,4.80
2013,11,22,10,21,4.80
2013,11,22,10,22,4.80
2013,11,22,10,23,4.90
2013,11,22,10,24,4.90
2013,11,22,10,25,4.90
2013,11,22,10,26,5.00
2013,11,22,10,27,5.00
2013,11,22,10,28,5.10
2013,11,22,10,29,5.10
2013,11,22,10,30,5.10
2013,11,22,10,31,5.20
2013,11,22,10,32,5.20
2013,11,22,10,33,5.20
2013,11,22,10,34,5.20
2013,11,22,10,35,5.20
2013,11,22,10,36,5.20
2013,11,22,10,37,5.20
2013,11,22,10,38,5.20
2013,11,22,10,39,5.20
2013,11,22,10,40,5.30
2013,11,22,10,41,5.30
2013,11,22,10,42,5.30
2013,11,22,10,43,5.30
2013,11,22,10,44,5.30
2013,11,22,10,45,5.30
2013,11,22,10,46,5.30
2013,11,22,10,47,5.30
2013,11,22,10,48,5.30
2013,11,22,10,49,5.30
2013,11,22,10,50,5.30
2013,11,22,10,51,5.30
2013,11,22,10,52,5.30
2013,11,22,10,53,5.30
2013,11,22,10,54,5.40
2013,11,22,10,55,5.40
2013,11,22,10,56,5.40
2013,11,22,10,57,5.40
2013,11,22,10,58,5.40
2013,11,22,10,59,5.50
2013,11,22,11,00,5.50
2013,11,22,11,01,5.50
2013,11,22,11,02,5.50
2013,11,22,11,03,5.60
2013,11,22,11,04,5.60
2013,11,22,11,05,5.60
2013,11,22,11,06,5.70
2013,11,22,11,07,5.70
2013,11,22,11,08,5.70
2013,11,22,11,09,5.80
2013,11,22,11,10,5.80
2013,11,22,11,11,5.80
2013,11,22,11,12,5.90
2013,11,22,11,13,5.90
2013,11,22,11,14,6.00
2013,11,22,11,15,6.00
2013,11,22,11,16,6.10
2013,11,22,11,17,6.10
2013,11,22,11,18,6.20
2013,11,22,11,19,6.20
2013,11,22,11,20,6.20
2013,11,22,11,21,6.30
2013,11,22,11,22,6.30
2013,11,22,11,23,6.40
2013,11,22,11,24,6.40
2013,11,22,11,25,6.50
2013,11,22,11,26,6.50
2013,11,22,11,27,6.50
2013,11,22,11,28,6.50
2013,11,22,11,29,6.60
2013,11,22,11,30,6.60
2013,11,22,11,31,6.60
2013,11,22,11,32,6.70
2013,11,22,11,33,6.70
2013,11,22,11,34,6.70
2013,11,22,11,35,6.80
2013,11,22,11,36,6.90
2013,11,22,11,37,6.90
2013,11,22,11,38,7.00
2013,11,22,11,39,7.00
2013,11,22,11,40,7.10
2013,11,22,11,41,7.10
2013,11,22,11,42,7.10
2013,11,22,11,43,7.10
2013,11,22,11,44,7.10
2013,11,22,11,45,7.10
2013,11,22,11,46,7.10
2013,11,22,11,47,7.10
2013,11,22,11,48,7.10
2013,11,22,11,49,7.10
2013,11,22,11,50,7.10
2013,11,22,11,51,7.20
2013,11,22,11,52,7.20
2013,11,22,11,53,7.20
2013,11,22,11,54,7.20
2013,11,22,11,55,7.20
2013,11,22,11,56,7.20
2013,11,22,11,57,7.20
2013,11,22,11,58,7.20
2013,11,22,11,59,7.20
2013,11,22,12,00,7.20
2013,11,22,12,01,7.30
2013,11,22,12,02,7.30
2013,11,22,12,03,7.40
2013,11,22,12,04,7.40
2013,11,22,12,05,7.40
2013,11,22,12,06,7.30
2013,11,22,12,07,7.30
2013,11,22,12,08,7.30
2013,11,22,12,09,7.30
2013,11,22,12,10,7.30
2013,11,22,12,11,7.30
2013,11,22,12,12,7.30
2013,11,22,12,13,7.30
2013,11,22,12,14,7.30
2013,11,22,12,15,7.30
2013,11,22,12,16,7.30
2013,11,22,12,17,7.30
2013,11,22,12,18,7.20
2013,11,22,12,19,7.20
2013,11,22,12,20,7.20
2013,11,22,12,21,7.20
2013,11,22,12,22,7.20
2013,11,22,12,23,7.20
2013,11,22,12,24,7.20
2013,11,22,12,25,7.20
2013,11,22,12,26,7.30
2013,11,22,12,27,7.30
2013,11,22,12,28,7.30
2013,11,22,12,29,7.30
2013,11,22,12,30,7.30
2013,11,22,12,31,7.30
2013,11,22,12,32,7.30
2013,11,22,12,33,7.30
2013,11,22,12,34,7.30
2013,11,22,12,35,7.30
2013,11,22,12,36,7.30
2013,11,22,12,37,7.30
2013,11,22,12,38,7.30
2013,11,22,12,39,7.30
2013,11,22,12,40,7.30
2013,11,22,12,41,7.30
2013,11,22,12,42,7.30
2013,11,22,12,43,7.20
2013,11,22,12,44,7.20
2013,11,22,12,45,7.20
2013,11,22,12,46,7.20
2013,11,22,12,47,7.20
2013,11,22,12,48,7.30
2013,11,22,12,49,7.30
2013,11,22,12,50,7.30
2013,11,22,12,51,7.30
2013,11,22,12,52,7.30
2013,11,22,12,53,7.30
2013,11,22,12,54,7.30
2013,11,22,12,55,7.30
2013,11,22,12,56,7.30
2013,11,22,12,57,7.40
2013,11,22,12,58,7.40
2013,11,22,12,59,7.40
2013,11,22,13,00,7.40
2013,11,22,13,01,7.40
2013,11,22,13,02,7.40
2013,11,22,13,03,7.50
2013,11,22,13,04,7.50
2013,11,22,13,05,7.50
2013,11,22,13,06,7.50
2013,11,22,13,07,7.50
2013,11,22,13,08,7.60
2013,11,22,13,09,7.60
2013,11,22,13,10,7.60
2013,11,22,13,11,7.50
2013,11,22,13,12,7.50
2013,11,22,13,13,7.50
2013,11,22,13,14,7.50
2013,11,22,13,15,7.50
2013,11,22,13,16,7.50
2013,11,22,13,17,7.50
2013,11,22,13,18,7.50
2013,11,22,13,19,7.40
2013,11,22,13,20,7.30
2013,11,22,13,21,7.30
2013,11,22,13,22,7.30
2013,11,22,13,23,7.30
2013,11,22,13,24,7.30
2013,11,22,13,25,7.30
2013,11,22,13,26,7.30
2013,11,22,13,27,7.30
2013,11,22,13,28,7.30
2013,11,22,13,29,7.30
2013,11,22,13,30,7.30
2013,11,22,13,31,7.20
2013,11,22,13,32,7.20
2013,11,22,13,33,7.10
2013,11,22,13,34,7.10
2013,11,22,13,35,7.10
2013,11,22,13,36,7.00
2013,11,22,13,37,7.00
2013,11,22,13,38,7.00
2013,11,22,13,39,7.00
2013,11,22,13,40,6.90
2013,11,22,13,41,6.90
2013,11,22,13,42,6.90
2013,11,22,13,43,7.00
2013,11,22,13,44,7.00
2013,11,22,13,45,7.00
2013,11,22,13,46,7.10
2013,11,22,13,47,7.10
2013,11,22,13,48,7.10
2013,11,22,13,49,7.20
2013,11,22,13,50,7.20
2013,11,22,13,51,7.20
2013,11,22,13,52,7.20
2013,11,22,13,53,7.10
2013,11,22,13,54,7.10
2013,11,22,13,55,7.10
2013,11,22,13,56,7.00
2013,11,22,13,57,7.00
2013,11,22,13,58,7.00
2013,11,22,13,59,6.90
2013,11,22,14,00,6.90
2013,11,22,14,01,6.90
2013,11,22,14,02,6.80
2013,11,22,14,03,6.80
2013,11,22,14,04,6.80
2013,11,22,14,05,6.80
2013,11,22,14,06,6.80
2013,11,22,14,07,6.80
2013,11,22,14,08,6.80
2013,11,22,14,09,6.90
2013,11,22,14,10,6.90
2013,11,22,14,11,6.90
2013,11,22,14,12,6.90
2013,11,22,14,13,6.90
2013,11,22,14,14,6.90
2013,11,22,14,15,6.90
2013,11,22,14,16,6.90
2013,11,22,14,17,6.90
2013,11,22,14,18,6.90
2013,11,22,14,19,6.90
2013,11,22,14,20,6.90
2013,11,22,14,21,6.90
2013,11,22,14,22,6.90
2013,11,22,14,23,6.90
2013,11,22,14,24,6.90
2013,11,22,14,25,6.90
2013,11,22,14,26,6.90
2013,11,22,14,27,6.90
2013,11,22,14,28,6.90
2013,11,22,14,29,6.90
2013,11,22,14,30,6.90
2013,11,22,14,31,6.90
2013,11,22,14,32,7.00
2013,11,22,14,33,7.00
2013,11,22,14,34,7.00
2013,11,22,14,35,7.00
2013,11,22,14,36,7.00
2013,11,22,14,37,7.00
2013,11,22,14,38,7.00
2013,11,22,14,39,7.00
2013,11,22,14,40,7.00
2013,11,22,14,41,7.10
2013,11,22,14,42,7.10
2013,11,22,14,43,7.10
2013,11,22,14,44,7.10
2013,11,22,14,45,7.10
2013,11,22,14,46,7.10
2013,11,22,14,47,7.10
2013,11,22,14,48,7.10
2013,11,22,14,49,7.10
2013,11,22,14,50,7.10
2013,11,22,14,51,7.10
2013,11,22,14,52,7.10
2013,11,22,14,53,7.10
2013,11,22,14,54,7.20
2013,11,22,14,55,7.20
2013,11,22,14,56,7.20
2013,11,22,14,57,7.10
2013,11,22,14,58,7.20
2013,11,22,14,59,7.20
2013,11,22,15,00,7.20
2013,11,22,15,01,7.20
2013,11,22,15,02,7.20
2013,11,22,15,03,7.20
2013,11,22,15,04,7.20
2013,11,22,15,05,7.20
2013,11,22,15,06,7.20
2013,11,22,15,07,7.20
2013,11,22,15,08,7.20
2013,11,22,15,09,7.20
2013,11,22,15,10,7.20
2013,11,22,15,11,7.20
2013,11,22,15,12,7.20
2013,11,22,15,13,7.20
2013,11,22,15,14,7.20
2013,11,22,15,15,7.20
2013,11,22,15,16,7.20
2013,11,22,15,17,7.20
2013,11,22,15,18,7.20
2013,11,22,15,19,7.20
2013,11,22,15,20,7.20
2013,11,22,15,21,7.20
2013,11,22,15,22,7.20
2013,11,22,15,23,7.20
2013,11,22,15,24,7.20
2013,11,22,15,25,7.20
2013,11,22,15,26,7.20
2013,11,22,15,27,7.20
2013,11,22,15,28,7.20
2013,11,22,15,29,7.10
2013,11,22,15,30,7.10
2013,11,22,15,31,7.10
2013,11,22,15,32,7.10
2013,11,22,15,33,7.10
2013,11,22,15,34,7.10
2013,11,22,15,35,7.10
2013,11,22,15,36,7.10
2013,11,22,15,37,7.10
2013,11,22,15,38,7.10
2013,11,22,15,39,7.10
2013,11,22,15,40,7.10
2013,11,22,15,41,7.10
2013,11,22,15,42,7.10
2013,11,22,15,43,7.10
2013,11,22,15,44,7.10
2013,11,22,15,45,7.10
2013,11,22,15,46,7.10
2013,11,22,15,47,7.10
2013,11,22,15,48,7.10
2013,11,22,15,49,7.10
2013,11,22,15,50,7.10
2013,11,22,15,51,7.10
2013,11,22,15,52,7.10
2013,11,22,15,53,7.10
2013,11,22,15,54,7.00
2013,11,22,15,55,7.00
2013,11,22,15,56,7.00
2013,11,22,15,57,6.90
2013,11,22,15,58,6.90
2013,11,22,15,59,6.90
2013,11,22,16,00,6.90
2013,11,22,16,01,6.80
2013,11,22,16,02,6.80
2013,11,22,16,03,6.80
2013,11,22,16,04,6.80
2013,11,22,16,05,6.80
2013,11,22,16,06,6.80
2013,11,22,16,07,6.80
2013,11,22,16,08,6.80
2013,11,22,16,09,6.70
2013,11,22,16,10,6.70
2013,11,22,16,11,6.70
2013,11,22,16,12,6.70
2013,11,22,16,13,6.70
2013,11,22,16,14,6.70
2013,11,22,16,15,6.70
2013,11,22,16,16,6.70
2013,11,22,16,17,6.70
2013,11,22,16,18,6.70
2013,11,22,16,19,6.70
2013,11,22,16,20,6.70
2013,11,22,16,21,6.80
2013,11,22,16,22,6.80
2013,11,22,16,23,6.80
2013,11,22,16,24,6.80
2013,11,22,16,25,6.80
2013,11,22,16,26,6.80
2013,11,22,16,27,6.80
2013,11,22,16,28,6.80
2013,11,22,16,29,6.80
2013,11,22,16,30,6.80
2013,11,22,16,31,6.80
2013,11,22,16,32,6.70
2013,11,22,16,33,6.70
2013,11,22,16,34,6.70
2013,11,22,16,35,6.70
2013,11,22,16,36,6.60
2013,11,22,16,37,6.60
2013,11,22,16,38,6.60
2013,11,22,16,39,6.50
2013,11,22,16,40,6.50
2013,11,22,16,41,6.40
2013,11,22,16,42,6.40
2013,11,22,16,43,6.40
2013,11,22,16,44,6.30
2013,11,22,16,45,6.30
2013,11,22,16,46,6.30
2013,11,22,16,47,6.20
2013,11,22,16,48,6.10
2013,11,22,16,49,6.10
2013,11,22,16,50,6.00
2013,11,22,16,51,5.90
2013,11,22,16,52,5.90
2013,11,22,16,53,5.80
2013,11,22,16,54,5.70
2013,11,22,16,55,5.60
2013,11,22,16,56,5.60
2013,11,22,16,57,5.50
2013,11,22,16,58,5.40
2013,11,22,16,59,5.30
2013,11,22,17,00,5.30
2013,11,22,17,01,5.30
2013,11,22,17,02,5.20
2013,11,22,17,03,5.20
2013,11,22,17,04,5.20
2013,11,22,17,05,5.20
2013,11,22,17,06,5.20
2013,11,22,17,07,5.10
2013,11,22,17,08,5.10
2013,11,22,17,09,5.10
2013,11,22,17,10,5.10
2013,11,22,17,11,5.10
2013,11,22,17,12,5.10
2013,11,22,17,13,5.10
2013,11,22,17,14,5.00
2013,11,22,17,15,5.00
2013,11,22,17,16,5.00
2013,11,22,17,17,4.90
2013,11,22,17,18,4.90
2013,11,22,17,19,4.90
2013,11,22,17,20,4.90
2013,11,22,17,21,4.90
2013,11,22,17,22,4.80
2013,11,22,17,23,4.80
2013,11,22,17,24,4.80
2013,11,22,17,25,4.80
2013,11,22,17,26,4.80
2013,11,22,17,27,4.70
2013,11,22,17,28,4.60
2013,11,22,17,29,4.60
2013,11,22,17,30,4.50
2013,11,22,17,31,4.50
2013,11,22,17,32,4.40
2013,11,22,17,33,4.40
2013,11,22,17,34,4.40
2013,11,22,17,35,4.40
2013,11,22,17,36,4.30
2013,11,22,17,37,4.30
2013,11,22,17,38,4.30
2013,11,22,17,39,4.30
2013,11,22,17,40,4.30
2013,11,22,17,41,4.30
2013,11,22,17,42,4.20
2013,11,22,17,43,4.20
2013,11,22,17,44,4.10
2013,11,22,17,45,4.00
2013,11,22,17,46,4.00
2013,11,22,17,47,3.90
2013,11,22,17,48,3.90
2013,11,22,17,49,3.80
2013,11,22,17,50,3.80
2013,11,22,17,51,3.70
2013,11,22,17,52,3.70
2013,11,22,17,53,3.70
2013,11,22,17,54,3.70
2013,11,22,17,55,3.60
2013,11,22,17,56,3.60
2013,11,22,17,57,3.50
2013,11,22,17,58,3.50
2013,11,22,17,59,3.50
2013,11,22,18,00,3.50
2013,11,22,18,01,3.40
2013,11,22,18,02,3.40
2013,11,22,18,03,3.40
2013,11,22,18,04,3.40
2013,11,22,18,05,3.40
2013,11,22,18,06,3.30